TimeMDT,TemperatureF,Dew PointF,Humidity,Sea Level PressureIn,VisibilityMPH,Wind Direction,Wind SpeedMPH,Gust SpeedMPH,PrecipitationIn,Events,Conditions,WindDirDegrees,DateUTC
12:54 AM,72.0,42.1,34,29.91,10.0,North,3.5,-,N/A,,Partly Cloudy,10,2013-06-27 06:54:00
1:54 AM,69.1,43.0,39,29.93,10.0,NNE,4.6,-,N/A,,Clear,20,2013-06-27 07:54:00
2:54 AM,66.9,43.0,42,29.93,9.0,North,8.1,-,N/A,,Clear,10,2013-06-27 08:54:00
3:54 AM,64.9,43.0,45,29.93,9.0,NNE,6.9,-,N/A,,Clear,20,2013-06-27 09:54:00
4:54 AM,66.0,44.1,45,29.94,10.0,North,10.4,-,N/A,,Clear,10,2013-06-27 10:54:00
5:54 AM,68.0,45.0,43,29.93,10.0,NNW,11.5,-,N/A,,Partly Cloudy,340,2013-06-27 11:54:00
6:54 AM,78.1,36.0,22,29.94,10.0,North,16.1,-,N/A,,Partly Cloudy,350,2013-06-27 12:54:00
7:54 AM,81.0,36.0,20,29.97,10.0,NW,8.1,-,N/A,,Partly Cloudy,310,2013-06-27 13:54:00
8:54 AM,86.0,34.0,16,29.99,10.0,North,20.7,27.6,N/A,,Partly Cloudy,350,2013-06-27 14:54:00
9:54 AM,89.1,34.0,14,29.99,10.0,NNW,18.4,24.2,N/A,,Scattered Clouds,330,2013-06-27 15:54:00
10:54 AM,91.9,32.0,12,29.99,10.0,NNW,18.4,-,N/A,,Scattered Clouds,340,2013-06-27 16:54:00
11:54 AM,95.0,30.9,10,29.97,10.0,NE,13.8,23.0,N/A,,Scattered Clouds,40,2013-06-27 17:54:00
12:54 PM,95.0,30.0,10,29.98,10.0,NE,15.0,26.5,N/A,,Scattered Clouds,50,2013-06-27 18:54:00
1:54 PM,95.0,28.9,10,29.98,10.0,NE,8.1,24.2,N/A,,Scattered Clouds,40,2013-06-27 19:54:00
2:54 PM,95.0,30.9,10,29.97,10.0,East,13.8,24.2,N/A,,Scattered Clouds,80,2013-06-27 20:54:00
3:54 PM,95.0,30.0,10,29.96,10.0,NNE,16.1,19.6,N/A,,Scattered Clouds,30,2013-06-27 21:54:00
4:54 PM,96.1,30.0,10,29.95,10.0,NE,17.3,-,N/A,,Scattered Clouds,40,2013-06-27 22:54:00
5:54 PM,93.0,35.1,13,29.95,10.0,ENE,13.8,18.4,N/A,,Scattered Clouds,60,2013-06-27 23:54:00
6:54 PM,89.1,37.0,16,29.94,10.0,ENE,16.1,-,N/A,,Scattered Clouds,60,2013-06-28 00:54:00
7:54 PM,87.1,37.9,18,29.96,10.0,East,10.4,-,N/A,,Scattered Clouds,80,2013-06-28 01:54:00
8:54 PM,82.9,36.0,19,29.98,10.0,East,12.7,-,N/A,,Scattered Clouds,80,2013-06-28 02:54:00
9:54 PM,78.1,39.9,25,30.02,10.0,East,10.4,-,N/A,,Partly Cloudy,80,2013-06-28 03:54:00
10:54 PM,78.1,42.1,28,30.06,10.0,ESE,4.6,-,N/A,,Scattered Clouds,110,2013-06-28 04:54:00
11:54 PM,75.9,45.0,33,30.11,10.0,South,8.1,-,N/A,,Mostly Cloudy,180,2013-06-28 05:54:00